period_start,C,m1,H,J0,J1,J2,J3,J4,J5,JA,JB,JC,JD,JJ,JK,JN,#
2016-03-09 00:02:37,0.06,1.74,0.00,24.86,28.00,31.28,14.40,49.21,1014.17,2029.34,2842.24,2674.55,3014.20,600.19,591.08,22.80,0000 0000 0000 0000 000000
2016-03-09 00:07:38,0.08,1.75,0.00,24.87,28.00,31.27,14.41,49.21,1014.09,2029.54,2840.79,2673.67,3013.20,599.97,590.79,22.85,0000 0000 0000 0000 000000
2016-03-09 00:12:39,0.06,1.75,0.00,24.87,28.01,31.27,14.40,49.21,1013.80,2029.52,2839.58,2672.81,3012.24,600.23,590.89,22.90,0000 0000 0000 0000 000000
2016-03-09 00:17:41,0.04,1.75,0.00,24.87,28.02,31.27,14.43,49.28,1013.82,2029.19,2838.40,2671.95,3011.17,600.14,590.81,22.95,0000 0000 0000 0000 000000
2016-03-09 00:22:42,0.08,1.76,0.00,24.86,28.02,31.29,14.39,49.14,1013.83,2029.20,2837.19,2671.10,3010.23,599.93,590.61,23.00,0000 0000 0000 0000 000000
2016-03-09 00:27:43,0.07,1.76,0.00,24.87,28.02,31.29,14.49,49.10,1013.98,2029.19,2835.77,2670.16,3009.17,600.44,591.17,23.05,0000 0000 0000 0000 000000
2016-03-09 00:32:44,0.08,1.76,0.00,24.87,28.03,31.29,14.36,49.10,1013.81,2029.29,2834.59,2669.28,3008.16,600.04,590.79,23.10,0000 0000 0000 0000 000000
2016-03-09 00:37:46,0.05,1.77,0.00,24.87,28.05,31.28,14.34,49.09,1013.71,2029.17,2833.30,2668.40,3007.27,599.61,590.18,23.15,0000 0000 0000 0000 000000
2016-03-09 00:42:47,0.10,1.77,0.00,24.88,28.05,31.29,14.29,49.09,1013.70,2029.25,2831.87,2667.47,3006.29,599.98,590.55,23.20,0000 0000 0000 0000 000000
2016-03-09 00:47:48,0.05,1.77,0.00,24.88,28.05,31.28,14.42,49.12,1013.69,2029.27,2830.67,2666.64,3005.26,600.37,590.90,23.25,0000 0000 0000 0000 000000
2016-03-09 00:52:50,0.09,1.78,0.00,24.87,28.05,31.29,14.33,49.20,1013.69,2029.36,2829.14,2665.67,3004.22,599.80,590.44,23.30,0000 0000 0000 0000 000000
2016-03-09 00:57:51,0.07,1.78,0.00,24.88,28.06,31.31,14.40,49.35,1013.69,2029.39,2827.76,2664.74,3003.28,600.25,590.75,23.35,0000 0000 0000 0000 000000
2016-03-09 01:02:52,0.06,1.79,0.00,24.90,28.07,31.28,14.44,49.17,1013.69,2029.41,2826.65,2663.94,3002.27,600.25,590.78,23.40,0000 0000 0000 0000 000000
2016-03-09 01:07:54,0.07,1.79,0.00,24.89,28.07,31.30,14.37,49.27,1013.69,2029.43,2825.52,2663.07,3001.23,599.98,590.47,23.45,0000 0000 0000 0000 000000
2016-03-09 01:12:55,0.06,1.79,0.00,24.90,28.07,31.30,14.41,49.18,1013.69,2029.32,2824.30,2662.19,3000.30,600.31,590.70,23.50,0000 0000 0000 0000 000000
2016-03-09 01:17:56,0.06,1.80,0.00,24.92,28.10,31.31,14.38,49.23,1013.68,2029.17,2823.00,2661.24,2999.29,600.04,590.55,23.55,0000 0000 0000 0000 000000
2016-03-09 01:22:57,0.06,1.80,0.00,24.90,28.10,31.30,14.45,49.22,1013.54,2029.15,2821.87,2660.50,2998.31,600.21,590.65,23.60,0000 0000 0000 0000 000000
2016-03-09 01:27:58,0.06,1.80,0.00,24.92,28.10,31.30,14.38,49.33,1013.38,2029.06,2820.77,2659.66,2997.33,600.16,590.40,23.65,0000 0000 0000 0000 000000
2016-03-09 01:32:59,0.07,1.81,0.00,24.91,28.12,31.30,14.38,49.32,1013.23,2029.06,2819.58,2658.85,2996.30,600.30,590.56,23.70,0000 0000 0000 0000 000000
2016-03-09 01:38:01,0.06,1.81,0.00,24.93,28.12,31.31,14.31,49.38,1013.21,2029.04,2818.40,2657.91,2995.39,599.71,589.88,23.75,0000 0000 0000 0000 000000
2016-03-09 01:43:02,0.07,1.81,0.00,24.92,28.12,31.33,14.32,49.41,1013.21,2029.01,2816.88,2656.97,2994.30,599.91,590.11,23.80,0000 0000 0000 0000 000000
2016-03-09 01:48:03,0.07,1.82,0.00,24.94,28.14,31.32,14.36,49.49,1013.21,2029.01,2815.66,2656.07,2993.23,599.68,589.86,23.85,0000 0000 0000 0000 000000
2016-03-09 01:53:04,0.07,1.82,0.00,24.94,28.15,31.32,14.35,49.46,1013.21,2029.00,2814.56,2655.19,2992.22,599.91,590.09,23.90,0000 0000 0000 0000 000000
2016-03-09 01:58:05,0.07,1.83,0.00,24.93,28.15,31.33,14.38,49.39,1013.20,2029.00,2813.26,2654.24,2991.24,600.03,590.21,23.95,0000 0000 0000 0000 000000
2016-03-09 02:03:06,0.07,1.83,0.00,24.92,28.15,31.34,14.35,49.42,1013.20,2029.01,2812.04,2653.43,2990.24,600.10,590.30,24.00,0000 0000 0000 0000 000000
2016-03-09 02:08:08,0.06,1.83,0.00,24.92,28.15,31.34,14.35,49.37,1013.20,2029.00,2810.84,2652.69,2989.38,599.79,589.99,24.05,0000 0000 0000 0000 000000
2016-03-09 02:13:09,0.06,1.83,0.00,24.94,28.15,31.35,14.42,49.32,1013.20,2029.00,2809.69,2651.90,2988.47,600.04,590.05,24.10,0000 0000 0000 0000 000000
2016-03-09 02:18:10,0.07,1.84,0.00,24.96,28.15,31.36,14.31,49.27,1013.20,2029.01,2808.45,2651.06,2987.48,600.24,590.38,24.15,0000 0000 0000 0000 000000
2016-03-09 02:23:12,0.06,1.84,0.00,24.99,28.16,31.35,14.32,49.32,1013.20,2029.01,2807.54,2650.26,2986.64,599.88,589.88,24.20,0000 0000 0000 0000 000000
2016-03-09 02:28:13,0.07,1.84,0.00,24.99,28.17,31.35,14.32,49.38,1013.20,2029.00,2806.38,2649.50,2985.65,599.93,589.99,24.25,0000 0000 0000 0000 000000
2016-03-09 02:33:14,0.05,1.85,0.00,24.98,28.17,31.35,14.35,49.34,1013.20,2029.00,2805.28,2648.73,2984.78,599.94,590.14,24.30,0000 0000 0000 0000 000000
2016-03-09 02:38:16,0.05,1.85,0.00,24.98,28.17,31.37,14.37,49.33,1013.20,2029.00,2804.24,2647.97,2983.89,600.03,590.13,24.35,0000 0000 0000 0000 000000
2016-03-09 02:43:17,0.07,1.86,0.00,24.97,28.17,31.37,14.31,49.28,1013.17,2029.00,2803.07,2647.12,2982.95,599.82,589.86,24.40,0000 0000 0000 0000 000000
2016-03-09 02:48:18,0.07,1.86,0.00,24.98,28.18,31.38,14.35,49.30,1013.18,2029.00,2801.90,2646.31,2982.02,599.92,590.01,24.45,0000 0000 0000 0000 000000
2016-03-09 02:53:19,0.07,1.86,0.00,25.00,28.19,31.38,14.42,49.35,1013.17,2029.00,2800.70,2645.50,2981.07,599.95,590.05,24.50,0000 0000 0000 0000 000000
2016-03-09 02:58:21,0.06,1.87,0.00,24.99,28.20,31.38,14.37,49.38,1013.08,2029.00,2799.54,2644.70,2980.12,600.00,589.93,24.55,0000 0000 0000 0000 000000
2016-03-09 03:03:22,0.06,1.87,0.00,25.00,28.20,31.39,14.41,49.39,1012.97,2029.00,2798.32,2643.85,2979.17,600.02,589.93,24.60,0000 0000 0000 0000 000000
2016-03-09 03:08:23,0.06,1.87,0.00,25.02,28.20,31.40,14.37,49.39,1012.92,2028.99,2797.08,2643.00,2978.13,600.02,589.87,24.65,0000 0000 0000 0000 000000
2016-03-09 03:13:25,0.07,1.88,0.00,25.03,28.20,31.40,14.31,49.46,1012.81,2028.99,2795.93,2642.13,2977.30,599.78,589.61,24.70,0000 0000 0000 0000 000000
2016-03-09 03:18:26,0.07,1.88,0.00,25.05,28.21,31.41,14.35,49.33,1012.74,2028.99,2794.68,2641.31,2976.29,599.59,589.26,24.75,0000 0000 0000 0000 000000
2016-03-09 03:23:28,0.06,1.88,0.00,25.06,28.22,31.42,14.34,49.42,1012.71,2028.99,2793.68,2640.57,2975.39,599.89,589.55,24.80,0000 0000 0000 0000 000000
2016-03-09 03:28:29,0.06,1.89,0.00,25.07,28.22,31.43,14.28,49.33,1012.71,2028.99,2792.53,2639.80,2974.41,599.86,589.53,24.85,0000 0000 0000 0000 000000
2016-03-09 03:33:30,0.06,1.89,0.00,25.09,28.24,31.45,14.29,49.48,1012.72,2028.99,2791.39,2638.92,2973.45,599.90,589.51,24.90,0000 0000 0000 0000 000000
2016-03-09 03:38:31,0.09,1.89,0.00,25.11,28.25,31.47,14.44,49.43,1012.72,2028.98,2789.92,2637.82,2972.19,600.42,589.95,24.95,0000 0000 0000 0000 000000
2016-03-09 03:43:33,0.07,1.90,0.00,25.12,28.25,31.45,14.33,49.58,1012.74,2028.98,2788.62,2636.90,2971.24,599.94,589.48,25.00,0000 0000 0000 0000 000000
2016-03-09 03:48:34,0.07,1.90,0.00,25.14,28.26,31.43,14.29,49.44,1012.74,2028.97,2787.53,2636.02,2970.14,599.95,589.47,25.05,0000 0000 0000 0000 000000
2016-03-09 03:53:35,0.07,1.91,0.00,25.15,28.27,31.46,14.32,49.56,1012.72,2028.96,2786.19,2635.15,2969.20,599.86,589.37,25.10,0000 0000 0000 0000 000000
2016-03-09 03:58:37,0.07,1.91,0.00,25.15,28.27,31.44,14.36,49.56,1012.71,2028.93,2784.92,2634.22,2968.16,599.85,589.32,25.15,0000 0000 0000 0000 000000
2016-03-09 04:03:38,0.07,1.91,0.00,25.15,28.28,31.46,14.35,49.47,1012.71,2028.84,2783.63,2633.27,2967.10,600.25,589.71,25.20,0000 0000 0000 0000 000000
2016-03-09 04:08:39,0.08,1.92,0.00,25.17,28.30,31.42,14.35,49.54,1012.71,2028.92,2782.24,2632.40,2966.03,599.53,589.30,25.25,0000 0000 0000 0000 000000
2016-03-09 04:13:41,0.07,1.92,0.00,25.17,28.30,31.42,14.33,49.47,1012.71,2028.93,2780.91,2631.53,2965.01,599.99,589.45,25.30,0000 0000 0000 0000 000000
2016-03-09 04:18:42,0.08,1.93,0.00,25.16,28.30,31.45,14.34,49.48,1012.71,2028.94,2779.58,2630.62,2963.97,600.21,589.66,25.35,0000 0000 0000 0000 000000
2016-03-09 04:23:44,0.07,1.93,0.00,25.16,28.30,31.43,14.34,49.52,1012.71,2028.94,2778.16,2629.73,2962.92,600.02,589.45,25.40,0000 0000 0000 0000 000000
2016-03-09 04:28:45,0.08,1.93,0.00,25.17,28.30,31.44,14.37,49.52,1012.71,2028.93,2776.78,2628.77,2961.85,600.15,589.58,25.45,0000 0000 0000 0000 000000
2016-03-09 04:33:47,0.07,1.94,0.00,25.15,28.28,31.42,14.33,49.49,1012.70,2028.95,2775.53,2627.89,2960.80,600.02,589.48,25.50,0000 0000 0000 0000 000000
2016-03-09 04:38:48,0.07,1.94,0.00,25.15,28.27,31.44,14.37,49.38,1012.70,2028.94,2774.16,2626.98,2959.75,599.78,589.33,25.56,0000 0000 0000 0000 000000
2016-03-09 04:43:49,0.08,1.95,0.00,25.15,28.27,31.45,14.35,49.41,1012.60,2028.93,2772.85,2626.07,2958.72,600.02,589.27,25.61,0000 0000 0000 0000 000000
2016-03-09 04:48:50,0.08,1.95,0.00,25.15,28.27,31.44,14.34,49.38,1012.57,2028.92,2771.62,2625.14,2957.70,600.00,589.42,25.66,0000 0000 0000 0000 000000
2016-03-09 04:53:52,0.08,1.95,0.00,25.14,28.27,31.44,14.35,49.44,1012.39,2028.92,2770.23,2624.26,2956.61,600.07,589.44,25.71,0000 0000 0000 0000 000000
2016-03-09 04:58:53,0.08,1.96,0.00,25.15,28.27,31.46,14.41,49.48,1012.54,2028.95,2768.90,2623.39,2955.66,600.41,589.71,25.76,0000 0000 0000 0000 000000
2016-03-09 05:03:54,0.07,1.96,0.00,25.14,28.27,31.44,14.36,49.51,1012.51,2028.95,2767.61,2622.65,2954.60,600.11,589.51,25.81,0000 0000 0000 0000 000000
2016-03-09 05:08:56,0.07,1.96,0.00,25.15,28.27,31.45,14.35,49.45,1012.67,2028.96,2766.19,2621.68,2953.47,600.02,589.54,25.86,0000 0000 0000 0000 000000
2016-03-09 05:13:57,0.08,1.97,0.00,25.16,28.27,31.45,14.36,49.58,1012.70,2028.93,2764.76,2620.70,2952.34,600.10,589.51,25.91,0000 0000 0000 0000 000000
2016-03-09 05:18:58,0.08,1.97,0.00,25.17,28.27,31.46,14.30,49.51,1012.63,2028.94,2763.36,2619.74,2951.20,599.70,589.02,25.96,0000 0000 0000 0000 000000
2016-03-09 05:23:59,0.08,1.98,0.00,25.17,28.27,31.45,14.35,49.50,1012.68,2028.97,2761.95,2618.80,2950.00,599.95,589.52,26.01,0000 0000 0000 0000 000000
2016-03-09 05:29:01,0.08,1.98,0.00,25.15,28.27,31.46,14.36,49.47,1012.70,2028.96,2760.64,2617.82,2948.89,600.35,589.69,26.06,0000 0000 0000 0000 000000
2016-03-09 05:34:01,0.08,1.99,0.00,25.15,28.27,31.46,14.32,49.50,1012.53,2028.95,2759.29,2616.83,2947.75,599.81,589.17,26.11,0000 0000 0000 0000 000000
2016-03-09 05:39:03,0.09,1.99,0.00,25.15,28.27,31.45,14.36,49.58,1012.26,2028.94,2757.83,2615.84,2946.59,600.12,589.45,26.16,0000 0000 0000 0000 000000
2016-03-09 05:44:04,0.08,1.99,0.00,25.15,28.27,31.45,14.35,49.52,1012.25,2028.89,2756.38,2614.86,2945.46,600.04,589.28,26.21,0000 0000 0000 0000 000000
2016-03-09 05:49:05,0.08,2.00,0.00,25.15,28.27,31.46,14.32,49.48,1012.25,2028.95,2754.93,2613.90,2944.31,599.91,589.10,26.26,0000 0000 0000 0000 000000
2016-03-09 05:54:07,0.08,2.00,0.00,25.15,28.27,31.48,14.38,49.55,1012.24,2028.95,2753.53,2612.95,2943.37,600.18,589.32,26.31,0000 0000 0000 0000 000000
2016-03-09 05:59:08,0.07,2.01,0.00,25.16,28.26,31.47,14.36,49.38,1012.23,2028.95,2752.08,2611.96,2942.25,600.07,589.24,26.36,0000 0000 0000 0000 000000
2016-03-09 06:04:09,0.08,2.01,0.00,25.15,28.25,31.48,14.35,49.47,1012.22,2028.95,2750.75,2610.96,2941.12,599.96,589.11,26.41,0000 0000 0000 0000 000000
2016-03-09 06:09:10,0.08,2.02,0.00,25.15,28.25,31.49,14.37,49.47,1012.22,2028.94,2749.34,2609.95,2939.91,600.32,589.39,26.46,0000 0000 0000 0000 000000
2016-03-09 06:14:12,0.08,2.02,0.00,25.16,28.25,31.45,14.33,49.37,1012.22,2028.95,2747.85,2609.00,2938.74,599.94,589.09,26.51,0000 0000 0000 0000 000000
2016-03-09 06:19:13,0.09,2.02,0.00,25.17,28.25,31.44,14.37,49.40,1012.23,2028.96,2746.42,2608.00,2937.58,600.34,589.48,26.56,0000 0000 0000 0000 000000
2016-03-09 06:24:14,0.09,2.03,0.00,25.17,28.24,31.43,14.38,49.42,1012.22,2028.97,2744.84,2606.96,2936.46,600.14,589.28,26.61,0000 0000 0000 0000 000000
2016-03-09 06:29:15,0.08,2.03,0.00,25.16,28.23,31.44,14.27,49.36,1012.22,2028.97,2743.50,2605.92,2935.34,600.26,589.46,26.66,0000 0000 0000 0000 000000
2016-03-09 06:34:17,0.08,2.04,0.00,25.17,28.23,31.47,14.37,49.43,1012.22,2028.97,2742.02,2604.95,2934.16,599.92,589.06,26.71,0000 0000 0000 0000 000000
2016-03-09 06:39:18,0.08,2.04,0.00,25.17,28.22,31.45,14.34,49.42,1012.22,2028.98,2740.66,2604.00,2933.04,600.29,589.29,26.76,0000 0000 0000 0000 000000
2016-03-09 06:44:19,0.08,2.05,0.00,25.17,28.22,31.44,14.33,49.45,1012.22,2028.98,2739.24,2602.99,2931.89,600.12,589.15,26.81,0000 0000 0000 0000 000000
2016-03-09 06:49:21,0.09,2.05,0.00,25.16,28.22,31.47,14.36,49.49,1012.22,2028.97,2737.72,2601.98,2930.76,600.11,589.22,26.86,0000 0000 0000 0000 000000
2016-03-09 06:54:22,0.08,2.06,0.00,25.17,28.22,31.45,14.33,49.38,1012.22,2028.97,2736.31,2601.01,2929.61,599.75,588.89,26.91,0000 0000 0000 0000 000000
2016-03-09 06:59:23,0.09,2.06,0.00,25.19,28.22,31.44,14.36,49.47,1012.22,2028.98,2734.75,2599.98,2928.49,599.93,589.11,26.96,0000 0000 0000 0000 000000
2016-03-09 07:04:24,0.09,2.06,0.00,25.19,28.22,31.43,14.35,49.41,1012.22,2028.99,2733.15,2598.91,2927.30,599.86,589.07,27.01,0000 0000 0000 0000 000000
2016-03-09 07:09:26,0.09,2.07,0.00,25.18,28.22,31.46,14.42,49.38,1012.22,2028.98,2731.60,2597.82,2926.00,600.12,589.24,27.06,0000 0000 0000 0000 000000
2016-03-09 07:14:27,0.10,2.07,0.00,25.19,28.22,31.46,14.38,49.38,1012.22,2028.98,2729.96,2596.73,2924.75,600.20,589.23,27.11,0000 0000 0000 0000 000000
2016-03-09 07:19:28,0.09,2.08,0.00,25.20,28.22,31.43,14.31,49.38,1012.23,2028.99,2728.35,2595.63,2923.49,599.98,589.04,27.16,0000 0000 0000 0000 000000
2016-03-09 07:24:29,0.10,2.08,0.00,25.20,28.22,31.43,14.44,49.47,1012.22,2028.98,2726.67,2594.48,2922.19,600.53,589.51,27.21,0000 0000 0000 0000 000000
2016-03-09 07:29:30,0.09,2.09,0.00,25.18,28.22,31.44,14.32,49.50,1012.23,2028.99,2725.07,2593.42,2920.92,599.82,589.04,27.26,0000 0000 0000 0000 000000
2016-03-09 07:34:32,0.09,2.09,0.00,25.17,28.22,31.44,14.35,49.40,1012.23,2028.99,2723.47,2592.34,2919.73,599.87,588.97,27.31,0000 0000 0000 0000 000000
2016-03-09 07:39:33,0.09,2.10,0.00,25.17,28.22,31.46,14.30,49.38,1012.23,2028.99,2721.79,2591.23,2918.47,599.86,589.00,27.36,0000 0000 0000 0000 000000
2016-03-09 07:44:34,0.09,2.10,0.00,25.19,28.20,31.44,14.28,49.33,1012.23,2028.99,2720.19,2590.04,2917.15,600.03,589.14,27.41,0000 0000 0000 0000 000000
2016-03-09 07:49:35,0.09,2.11,0.00,25.19,28.20,31.45,14.23,49.39,1012.27,2028.99,2718.62,2588.97,2915.91,599.69,588.99,27.46,0000 0000 0000 0000 000000
2016-03-09 07:54:37,0.09,2.11,0.00,25.19,28.20,31.43,14.28,49.40,1012.24,2028.99,2717.04,2587.93,2914.72,599.86,588.98,27.51,0000 0000 0000 0000 000000
2016-03-09 07:59:38,0.10,2.12,0.00,25.19,28.20,31.45,14.37,49.45,1012.23,2028.99,2715.42,2586.81,2913.42,600.12,589.26,27.56,0000 0000 0000 0000 000000
2016-03-09 08:04:39,0.10,2.12,0.00,25.20,28.20,31.43,14.37,49.38,1012.27,2028.99,2713.82,2585.68,2912.13,600.08,589.09,27.61,0000 0000 0000 0000 000000
2016-03-09 08:09:40,0.10,2.13,0.00,25.19,28.20,31.44,14.29,49.42,1012.26,2028.99,2712.17,2584.52,2910.79,599.89,588.94,27.66,0000 0000 0000 0000 000000
2016-03-09 08:14:41,0.10,2.13,0.00,25.19,28.20,31.42,14.24,49.27,1012.35,2028.99,2710.49,2583.43,2909.48,599.71,588.89,27.71,0000 0000 0000 0000 000000
2016-03-09 08:19:43,0.10,2.14,0.00,25.19,28.20,31.40,14.37,49.32,1012.48,2028.99,2708.71,2582.26,2908.16,600.20,589.49,27.76,0000 0000 0000 0000 000000
2016-03-09 08:24:44,0.10,2.14,0.00,25.20,28.20,31.41,14.40,49.42,1012.66,2028.99,2706.92,2581.02,2906.75,600.00,589.54,27.81,0000 0000 0000 0000 000000
2016-03-09 08:29:46,0.11,2.15,0.00,25.20,28.20,31.42,14.26,49.36,1012.69,2028.99,2705.16,2579.78,2905.38,599.99,589.37,27.86,0000 0000 0000 0000 000000
2016-03-09 08:34:47,0.10,2.15,0.00,25.20,28.19,31.43,14.37,49.38,1012.71,2028.99,2703.52,2578.60,2904.04,600.09,589.47,27.91,0000 0000 0000 0000 000000
2016-03-09 08:39:48,0.11,2.16,0.00,25.19,28.19,31.45,14.25,49.38,1012.71,2028.99,2701.73,2577.35,2902.58,599.96,589.42,27.96,0000 0000 0000 0000 000000
2016-03-09 08:44:49,0.10,2.17,0.00,25.19,28.18,31.42,14.30,49.31,1012.71,2028.99,2699.75,2576.07,2901.11,599.96,589.35,28.01,0000 0000 0000 0000 000000
2016-03-09 08:49:50,0.12,2.17,0.00,25.18,28.17,31.41,14.41,49.41,1012.75,2028.99,2697.95,2574.77,2899.67,599.87,589.34,28.06,0000 0000 0000 0000 000000
2016-03-09 08:54:51,0.10,2.18,0.00,25.17,28.17,31.41,14.41,49.38,1012.79,2028.99,2696.14,2573.53,2898.22,600.05,589.52,28.11,0000 0000 0000 0000 000000
2016-03-09 08:59:52,0.10,2.18,0.00,25.17,28.17,31.41,14.35,49.51,1012.76,2028.98,2694.37,2572.30,2896.79,600.03,589.48,28.16,0000 0000 0000 0000 000000
2016-03-09 09:04:53,0.10,2.19,0.00,25.17,28.17,31.42,14.26,49.42,1012.81,2028.99,2692.57,2571.03,2895.41,599.68,589.21,28.21,0000 0000 0000 0000 000000
2016-03-09 09:09:54,0.10,2.19,0.00,25.17,28.17,31.41,14.32,49.47,1012.98,2028.99,2690.90,2569.86,2894.01,600.34,589.87,28.26,0000 0000 0000 0000 000000
2016-03-09 09:14:56,0.12,2.20,0.00,25.17,28.17,31.41,14.32,49.40,1013.10,2028.99,2689.03,2568.64,2892.59,600.10,589.75,28.31,0000 0000 0000 0000 000000
2016-03-09 09:19:58,0.10,2.21,0.00,25.17,28.17,31.42,14.35,49.43,1013.15,2028.99,2687.26,2567.40,2891.18,600.04,589.71,28.36,0000 0000 0000 0000 000000
2016-03-09 09:24:59,0.11,2.21,0.00,25.16,28.17,31.41,14.39,49.52,1013.18,2028.99,2685.44,2566.11,2889.68,600.24,589.99,28.41,0000 0000 0000 0000 000000
2016-03-09 09:30:00,0.11,2.22,0.00,25.15,28.17,31.40,14.35,49.52,1013.15,2028.99,2683.64,2564.87,2888.38,600.06,589.82,28.46,0000 0000 0000 0000 000000
2016-03-09 09:35:01,0.11,2.22,0.00,25.15,28.17,31.41,14.23,49.55,1013.12,2028.99,2681.86,2563.63,2886.89,599.55,589.26,28.51,0000 0000 0000 0000 000000
2016-03-09 09:40:02,0.10,2.23,0.00,25.15,28.15,31.43,14.40,49.52,1013.19,2028.99,2680.26,2562.49,2885.60,600.22,590.03,28.56,0000 0000 0000 0000 000000
2016-03-09 09:45:04,0.09,2.23,0.00,25.14,28.15,31.40,14.34,49.40,1013.20,2028.99,2678.58,2561.37,2884.30,599.93,589.68,28.61,0000 0000 0000 0000 000000
2016-03-09 09:50:05,0.10,2.24,0.00,25.13,28.15,31.40,14.42,49.38,1013.20,2028.99,2676.86,2560.25,2882.87,600.29,590.08,28.66,0000 0000 0000 0000 000000
2016-03-09 09:55:07,0.09,2.24,0.00,25.12,28.15,31.40,14.32,49.38,1013.20,2028.99,2675.32,2559.16,2881.67,600.17,590.01,28.71,0000 0000 0000 0000 000000
2016-03-09 10:00:08,0.09,2.25,0.00,25.11,28.13,31.39,14.30,49.42,1013.20,2028.99,2673.74,2558.26,2880.47,600.22,589.99,28.76,0000 0000 0000 0000 000000
2016-03-09 10:05:09,0.08,2.25,0.00,25.10,28.12,31.40,14.30,49.33,1013.20,2028.99,2672.37,2557.27,2879.33,599.74,589.60,28.81,0000 0000 0000 0000 000000
2016-03-09 10:10:10,0.08,2.26,0.00,25.09,28.12,31.39,14.40,49.33,1013.20,2028.99,2671.04,2556.28,2878.34,599.80,589.71,28.86,0000 0000 0000 0000 000000
2016-03-09 10:15:12,0.09,2.26,0.00,25.07,28.12,31.40,14.19,49.08,1013.20,2028.99,2669.57,2555.32,2877.20,599.54,589.45,28.91,0000 0000 0000 0000 000000
2016-03-09 10:20:13,0.08,2.26,0.00,25.07,28.11,31.40,14.47,49.27,1013.20,2028.99,2668.20,2554.32,2875.98,600.36,590.24,28.96,0000 0000 0000 0000 000000
2016-03-09 10:25:14,0.09,2.27,0.00,25.06,28.10,31.39,14.45,49.27,1013.20,2028.99,2666.78,2553.29,2874.80,599.90,589.80,29.01,0000 0000 0000 0000 000000
2016-03-09 10:30:15,0.09,2.27,0.00,25.05,28.10,31.38,14.39,49.21,1013.20,2028.99,2665.28,2552.27,2873.54,599.98,589.88,29.06,0000 0000 0000 0000 000000
2016-03-09 10:35:17,0.09,2.28,0.00,25.05,28.10,31.36,14.51,49.29,1013.20,2028.99,2663.69,2551.22,2872.39,600.45,590.29,29.11,0000 0000 0000 0000 000000
2016-03-09 10:40:18,0.09,2.28,0.00,25.04,28.09,31.36,14.37,49.12,1013.20,2028.99,2662.21,2550.17,2871.26,600.23,590.14,29.16,0000 0000 0000 0000 000000
2016-03-09 10:45:19,0.09,2.29,0.00,25.02,28.07,31.35,14.51,49.27,1013.21,2028.99,2660.70,2549.13,2870.02,600.51,590.42,29.21,0000 0000 0000 0000 000000
2016-03-09 10:50:21,0.10,2.29,0.00,25.02,28.07,31.36,14.42,49.17,1013.20,2028.99,2659.19,2548.07,2868.75,600.12,590.14,29.26,0000 0000 0000 0000 000000
2016-03-09 10:55:22,0.09,2.30,0.00,25.01,28.07,31.37,14.32,49.07,1013.20,2028.99,2657.64,2547.03,2867.56,599.75,589.78,29.31,0000 0000 0000 0000 000000
2016-03-09 11:00:24,0.08,2.30,0.00,25.00,28.05,31.35,14.35,49.14,1013.20,2028.99,2656.26,2546.00,2866.41,599.82,589.87,29.36,0000 0000 0000 0000 000000
2016-03-09 11:05:25,0.10,2.31,0.00,25.00,28.05,31.35,14.21,49.23,1013.20,2028.99,2654.70,2544.98,2865.23,599.92,589.92,29.41,0000 0000 0000 0000 000000
2016-03-09 11:10:26,0.09,2.31,0.00,25.00,28.05,31.35,14.34,49.32,1013.20,2028.99,2653.05,2543.96,2864.04,600.16,590.18,29.46,0000 0000 0000 0000 000000
2016-03-09 11:15:28,0.10,2.32,0.00,24.98,28.04,31.34,14.31,49.31,1013.18,2028.99,2651.57,2542.91,2862.81,600.10,590.18,29.51,0000 0000 0000 0000 000000
2016-03-09 11:20:29,0.09,2.32,0.00,24.97,28.03,31.33,14.36,49.29,1013.19,2028.99,2649.99,2541.84,2861.63,599.72,589.73,29.56,0000 0000 0000 0000 000000
2016-03-09 11:25:31,0.09,2.33,0.00,24.97,28.02,31.33,14.39,49.25,1013.20,2028.99,2648.51,2540.84,2860.43,599.74,589.81,29.61,0000 0000 0000 0000 000000
2016-03-09 11:30:32,0.09,2.33,0.00,24.96,28.02,31.32,14.35,49.23,1013.20,2029.00,2647.01,2539.86,2859.38,599.93,590.03,29.66,0000 0000 0000 0000 000000
2016-03-09 11:35:33,0.08,2.34,0.00,24.95,28.02,31.31,14.39,49.27,1013.20,2029.00,2645.54,2538.85,2858.20,599.97,590.16,29.72,0000 0000 0000 0000 000000
2016-03-09 11:40:35,0.08,2.34,0.00,24.94,28.01,31.31,14.31,49.26,1013.18,2029.00,2644.10,2537.84,2857.04,599.75,589.99,29.77,0000 0000 0000 0000 000000
2016-03-09 11:45:36,0.11,2.35,0.00,24.92,28.00,31.29,14.37,49.26,1013.20,2029.00,2642.57,2536.75,2855.80,599.99,590.19,29.82,0000 0000 0000 0000 000000
2016-03-09 11:50:38,0.08,2.35,0.00,24.91,28.00,31.30,14.40,49.29,1013.20,2029.00,2641.08,2535.82,2854.61,600.06,590.29,29.87,0000 0000 0000 0000 000000
2016-03-09 11:55:39,0.10,2.35,0.00,24.89,28.00,31.30,14.33,49.21,1013.20,2029.00,2639.61,2534.77,2853.50,599.92,590.33,29.92,0000 0000 0000 0000 000000
2016-03-09 12:00:41,0.08,2.36,0.00,24.88,28.00,31.30,14.49,49.22,1013.21,2029.00,2638.12,2533.76,2852.36,600.26,590.53,29.97,0000 0000 0000 0000 000000
2016-03-09 12:05:42,0.09,2.36,0.00,24.87,27.98,31.29,14.36,49.08,1013.21,2029.00,2636.68,2532.79,2851.23,599.85,590.22,30.02,0000 0000 0000 0000 000000
2016-03-09 12:10:43,0.08,2.37,0.00,24.87,27.97,31.30,14.37,49.24,1013.21,2029.00,2635.21,2531.79,2850.08,600.01,590.28,30.07,0000 0000 0000 0000 000000
2016-03-09 12:15:44,0.10,2.37,0.00,24.89,27.97,31.29,14.40,49.16,1013.40,2029.00,2633.66,2530.74,2848.90,599.84,590.20,30.12,0000 0000 0000 0000 000000
2016-03-09 12:20:45,0.09,2.38,0.00,24.88,27.97,31.30,14.45,49.11,1013.69,2029.00,2632.16,2529.71,2847.72,600.17,590.73,30.17,0000 0000 0000 0000 000000
2016-03-09 12:25:47,0.09,2.38,0.00,24.87,27.97,31.29,14.36,49.12,1013.69,2029.00,2630.59,2528.68,2846.52,599.89,590.47,30.22,0000 0000 0000 0000 000000
2016-03-09 12:30:48,0.08,2.39,0.00,24.87,27.97,31.27,14.41,49.11,1013.69,2029.01,2629.28,2527.77,2845.34,600.24,590.76,30.27,0000 0000 0000 0000 000000
2016-03-09 12:35:49,0.07,2.39,0.00,24.87,27.95,31.27,14.35,49.13,1013.69,2029.01,2628.03,2526.84,2844.26,599.86,590.47,30.32,0000 0000 0000 0000 000000
2016-03-09 12:40:50,0.10,2.40,0.00,24.87,27.95,31.27,14.47,49.21,1013.69,2029.01,2626.59,2525.79,2843.14,600.07,590.77,30.37,0000 0000 0000 0000 000000
2016-03-09 12:45:51,0.11,2.40,0.00,24.89,27.95,31.28,14.28,49.08,1013.69,2029.00,2624.84,2524.61,2841.78,599.75,590.25,30.42,0000 0000 0000 0000 000000
2016-03-09 12:50:53,0.15,2.41,0.00,24.87,27.95,31.29,14.32,49.06,1013.69,2029.01,2622.62,2523.09,2840.14,599.80,590.44,30.47,0000 0000 0000 0000 000000
2016-03-09 12:55:54,0.16,2.42,0.00,24.86,27.94,31.27,14.41,49.10,1013.69,2029.00,2619.90,2521.14,2837.80,599.83,590.51,30.52,0000 0000 0000 0000 000000